This demonstration page uses our WeatherBlox Daily Observations layout. Learn more.

Left ArrowRight Arrow

Hourly Observations for November 28, 2020

Temp ( °F °C ) Dew Point ( °F °C ) Humidity (%) Winds ( mph kmh ) Pressure ( in mb ) Visibility ( mi km ) Precip ( " mm )
12:52 am 00:52 Clear 30 -1.1 24 -4.4 79 79 SSE 9 15 30.22 1023 10 16 0.00 0.00
1:52 am 01:52 Clear 32 0 25 -3.9 75 75 SSE 10 17 30.20 1023 10 16 0.00 0.00
2:52 am 02:52 Clear 34 1.1 26 -3.3 73 73 SSE 8 13 30.18 1022 10 16 0.00 0.00
3:52 am 03:52 Clear 32 0 25 -3.9 75 75 SSE 8 13 30.18 1022 10 16 0.00 0.00
4:52 am 04:52 Clear 31 -0.6 25 -3.9 79 79 SE 8 13 30.16 1022 10 16 0.00 0.00
5:52 am 05:52 Clear 28 -2.2 24 -4.4 85 85 SE 9 15 30.17 1022 10 16 0.00 0.00
6:52 am 06:52 Clear 29 -1.7 24 -4.4 82 82 SE 9 15 30.17 1022 10 16 0.00 0.00
7:52 am 07:52 Sunny 30 -1.1 26 -3.3 85 85 SSE 8 13 30.16 1021 10 16 0.00 0.00
8:52 am 08:52 Sunny 36 2.2 29 -1.7 76 76 SSE 10 17 30.15 1021 10 16 0.00 0.00
9:52 am 09:52 Sunny 42 5.6 31 -0.6 65 65 SSE 10 17 30.14 1021 10 16 0.00 0.00
10:52 am 10:52 Sunny 49 9.4 30 -1.1 48 48 SSW 7 11 30.11 1020 10 16 0.00 0.00
11:52 am 11:52 Sunny 53 11.7 30 -1.1 41 41 SW 13 20 30.08 1019 10 16 0.00 0.00
12:52 pm 12:52 Sunny 56 13.3 32 0 40 40 SW 9 15 30.04 1017 10 16 0.00 0.00
1:52 pm 13:52 Sunny 59 15 32 0 36 36 SW 10 17 30.02 1017 10 16 0.00 0.00
2:52 pm 14:52 Sunny 60 15.6 32 0 35 35 SSW 15 24 30.01 1016 10 16 0.00 0.00
3:52 pm 15:52 Sunny 58 14.4 32 0 38 38 SSW 16 26 30.02 1017 10 16 0.00 0.00
4:52 pm 16:52 Sunny 55 12.8 33 0.6 44 44 S 10 17 30.03 1017 10 16 0.00 0.00
5:52 pm 17:52 Clear 52 11.1 32 0 47 47 S 12 19 30.03 1017 10 16 0.00 0.00
6:52 pm 18:52 Clear 43 6.1 31 -0.6 63 63 SSE 8 13 30.04 1017 10 16 0.00 0.00
7:52 pm 19:52 Clear 42 5.6 32 0 68 68 SE 9 15 30.02 1017 10 16 0.00 0.00
8:52 pm 20:52 Clear 37 2.8 30 -1.1 76 76 SSE 10 17 30.01 1016 10 16 0.00 0.00
9:52 pm 21:52 Clear 38 3.3 31 -0.6 76 76 SE 12 19 30.00 1016 10 16 0.00 0.00
10:52 pm 22:52 Clear 37 2.8 31 -0.6 79 79 SE 8 13 30.00 1016 10 16 0.00 0.00
11:52 pm 23:52 Clear 35 1.7 30 -1.1 82 82 SE 7 11 30.00 1016 10 16 0.00 0.00

Powered by AerisWeather